Hourly Data Report for July 14, 2021

CARIBOU POINT (AUT)
NOVA SCOTIA
Current Station Operator: ECCC - MSC

45°46'00.000" N
62°41'00.000" W
2.40 m
8200774
71415
WBK

Download Data

Hourly Data (July 2021)
Hourly Data Report for July 14, 2021
TIME
LST
Temp Definition
°C
Dew Point Definition
°C
Rel Hum Definition
%
Precip. Amount Definition
mm

Wind Dir Definition
10's deg

Wind Spd Definition
km/h
Visibility Definition
km
Stn Press Definition
kPa
Hmdx Definition


Wind Chill Definition


Weather Definition


00:00 16.2 8.7 61 0.0 22 15   102.67     LegendNANA
01:00 15.7 7.6 58 0.0 21 13   102.66     LegendNANA
02:00 15.4 7.1 58 0.0 21 11   102.68     LegendNANA
03:00 15.1 7.0 58 0.0 21 8   102.67     LegendNANA
04:00 15.3 6.9 57 0.0 22 14   102.69     LegendNANA
05:00 14.7 8.3 65 0.0 21 9   102.68     LegendNANA
06:00 14.9 8.4 65 0.0 21 13   102.68     LegendNANA
07:00 17.4 10.5 64 0.0 21 13   102.69     LegendNANA
08:00 18.5 11.4 63 0.0 21 9   102.66     LegendNANA
09:00 20.8 13.4 63 0.0 22 7   102.65     LegendNANA
10:00 22.3 14.2 60 0.0 19 10   102.60 26   LegendNANA
11:00 23.1 13.5 55 0.0 19 15   102.55 26   LegendNANA
12:00 23.4 13.4 53 0.0 19 18   102.51 26   LegendNANA
13:00 24.5 12.9 48 0.0 20 15   102.48 27   LegendNANA
14:00 24.3 11.2 44 0.0 19 24   102.45 26   LegendNANA
15:00 24.1 11.0 44 0.0 18 24   102.41 26   LegendNANA
16:00 24.7 11.4 43 0.0 20 18   102.37 27   LegendNANA
17:00 23.7 10.9 44 0.0 20 17   102.35 25   LegendNANA
18:00 21.5 10.7 50 0.0 20 12   102.33     LegendNANA
19:00 20.6 11.4 56 0.0 20 15   102.33     LegendNANA
20:00 19.0 12.7 67 0.0 18 18   102.33     LegendNANA
21:00 18.8 13.7 73 0.0 19 13   102.36     LegendNANA
22:00 18.3 14.2 77 0.0 20 13   102.34     LegendNANA
23:00 17.9 14.5 81 0.0 20 13   102.31     LegendNANA

Notes on Data Quality.

Legend

  • E = Estimated
  • M = Missing
  • NA = Not Available*
  • [empty] = Indicates an unobserved value
Date modified: